Location: Newark
(51.0500°N, 12.4500°E)
Time: 15:15:54
(UTC+00:00)

Vanguard 1 - Pass Details

Date: 24 February 2020
Orbit: 649 x 3834 km, 34.2° (Epoch: 30 March)

Event Time Altitude Azimuth Distance (km) Brightness Sun altitude
Rises 04:15:11 0° 191° (S) 7,837 14.5 -18.2°
Reaches altitude 10° 04:23:03 10° 177° (S) 6,930 14.3 -17.0°
Maximum altitude 04:36:45 20° 140° (SE) 5,854 14.4 -14.8°
Drops below altitude 10° 04:48:34 10° 103° (ESE) 5,981 15.4 -13.0°
Sets 04:54:23 0° 88° (E) 6,505 16.4 -12.1°
